Year,Month,Day,Hour,Minute,Value (Times are PST for temperature in C)
2014,08,17,00,00,16.80
2014,08,17,00,01,16.80
2014,08,17,00,02,16.80
2014,08,17,00,03,16.80
2014,08,17,00,04,16.80
2014,08,17,00,05,16.80
2014,08,17,00,06,16.80
2014,08,17,00,07,16.80
2014,08,17,00,08,16.80
2014,08,17,00,09,16.80
2014,08,17,00,10,16.80
2014,08,17,00,11,16.80
2014,08,17,00,12,16.80
2014,08,17,00,13,16.80
2014,08,17,00,14,16.80
2014,08,17,00,15,16.80
2014,08,17,00,16,16.80
2014,08,17,00,17,16.80
2014,08,17,00,18,16.80
2014,08,17,00,19,16.80
2014,08,17,00,20,16.80
2014,08,17,00,21,16.90
2014,08,17,00,22,16.90
2014,08,17,00,23,16.90
2014,08,17,00,24,16.90
2014,08,17,00,25,16.90
2014,08,17,00,26,16.80
2014,08,17,00,27,16.80
2014,08,17,00,28,16.80
2014,08,17,00,29,16.80
2014,08,17,00,30,16.80
2014,08,17,00,31,16.80
2014,08,17,00,32,16.80
2014,08,17,00,33,16.80
2014,08,17,00,34,16.80
2014,08,17,00,35,16.80
2014,08,17,00,36,16.80
2014,08,17,00,37,16.80
2014,08,17,00,38,16.80
2014,08,17,00,39,16.80
2014,08,17,00,40,16.80
2014,08,17,00,41,16.80
2014,08,17,00,42,16.70
2014,08,17,00,43,16.70
2014,08,17,00,44,16.70
2014,08,17,00,45,16.70
2014,08,17,00,46,16.60
2014,08,17,00,47,16.60
2014,08,17,00,48,16.60
2014,08,17,00,49,16.60
2014,08,17,00,50,16.60
2014,08,17,00,51,16.60
2014,08,17,00,52,16.50
2014,08,17,00,53,16.50
2014,08,17,00,54,16.50
2014,08,17,00,55,16.50
2014,08,17,00,56,16.50
2014,08,17,00,57,16.40
2014,08,17,00,58,16.40
2014,08,17,00,59,16.40
2014,08,17,01,00,16.40
2014,08,17,01,01,16.40
2014,08,17,01,02,16.40
2014,08,17,01,03,16.40
2014,08,17,01,04,16.40
2014,08,17,01,05,16.40
2014,08,17,01,06,16.40
2014,08,17,01,07,16.40
2014,08,17,01,08,16.50
2014,08,17,01,09,16.50
2014,08,17,01,10,16.50
2014,08,17,01,11,16.50
2014,08,17,01,12,16.50
2014,08,17,01,13,16.50
2014,08,17,01,14,16.50
2014,08,17,01,15,16.40
2014,08,17,01,16,16.40
2014,08,17,01,17,16.40
2014,08,17,01,18,16.40
2014,08,17,01,19,16.40
2014,08,17,01,20,16.40
2014,08,17,01,21,16.40
2014,08,17,01,22,16.40
2014,08,17,01,23,16.40
2014,08,17,01,24,16.40
2014,08,17,01,25,16.40
2014,08,17,01,26,16.40
2014,08,17,01,27,16.40
2014,08,17,01,28,16.40
2014,08,17,01,29,16.40
2014,08,17,01,30,16.40
2014,08,17,01,31,16.40
2014,08,17,01,32,16.50
2014,08,17,01,33,16.50
2014,08,17,01,34,16.50
2014,08,17,01,35,16.50
2014,08,17,01,36,16.50
2014,08,17,01,37,16.50
2014,08,17,01,38,16.50
2014,08,17,01,39,16.50
2014,08,17,01,40,16.50
2014,08,17,01,41,16.50
2014,08,17,01,42,16.50
2014,08,17,01,43,16.50
2014,08,17,01,44,16.50
2014,08,17,01,45,16.50
2014,08,17,01,46,16.60
2014,08,17,01,47,16.60
2014,08,17,01,48,16.60
2014,08,17,01,49,16.60
2014,08,17,01,50,16.70
2014,08,17,01,51,16.70
2014,08,17,01,52,16.70
2014,08,17,01,53,16.70
2014,08,17,01,54,16.70
2014,08,17,01,55,16.70
2014,08,17,01,56,16.80
2014,08,17,01,57,16.80
2014,08,17,01,58,16.80
2014,08,17,01,59,16.80
2014,08,17,02,00,16.80
2014,08,17,02,01,16.80
2014,08,17,02,02,16.80
2014,08,17,02,03,16.80
2014,08,17,02,04,16.80
2014,08,17,02,05,16.80
2014,08,17,02,06,16.80
2014,08,17,02,07,16.90
2014,08,17,02,08,16.90
2014,08,17,02,09,16.90
2014,08,17,02,10,16.90
2014,08,17,02,11,16.90
2014,08,17,02,12,16.90
2014,08,17,02,13,16.90
2014,08,17,02,14,16.90
2014,08,17,02,15,16.90
2014,08,17,02,16,16.90
2014,08,17,02,17,16.90
2014,08,17,02,18,16.90
2014,08,17,02,19,16.90
2014,08,17,02,20,16.90
2014,08,17,02,21,17.00
2014,08,17,02,22,17.00
2014,08,17,02,23,17.00
2014,08,17,02,24,17.10
2014,08,17,02,25,17.10
2014,08,17,02,26,17.10
2014,08,17,02,27,17.10
2014,08,17,02,28,17.10
2014,08,17,02,29,17.10
2014,08,17,02,30,17.10
2014,08,17,02,31,17.10
2014,08,17,02,32,17.10
2014,08,17,02,33,17.10
2014,08,17,02,34,17.10
2014,08,17,02,35,17.10
2014,08,17,02,36,17.20
2014,08,17,02,37,17.30
2014,08,17,02,38,17.30
2014,08,17,02,39,17.40
2014,08,17,02,40,17.40
2014,08,17,02,41,17.50
2014,08,17,02,42,17.50
2014,08,17,02,43,17.60
2014,08,17,02,44,17.70
2014,08,17,02,45,17.70
2014,08,17,02,46,17.80
2014,08,17,02,47,17.90
2014,08,17,02,48,17.90
2014,08,17,02,49,18.00
2014,08,17,02,50,18.00
2014,08,17,02,51,18.10
2014,08,17,02,52,18.10
2014,08,17,02,53,18.10
2014,08,17,02,54,18.10
2014,08,17,02,55,18.10
2014,08,17,02,56,18.00
2014,08,17,02,57,18.00
2014,08,17,02,58,18.00
2014,08,17,02,59,17.90
2014,08,17,03,00,17.90
2014,08,17,03,01,17.90
2014,08,17,03,02,17.90
2014,08,17,03,03,17.90
2014,08,17,03,04,17.90
2014,08,17,03,05,17.90
2014,08,17,03,06,17.90
2014,08,17,03,07,18.00
2014,08,17,03,08,18.00
2014,08,17,03,09,18.00
2014,08,17,03,10,18.00
2014,08,17,03,11,18.10
2014,08,17,03,12,18.10
2014,08,17,03,13,18.10
2014,08,17,03,14,18.20
2014,08,17,03,15,18.20
2014,08,17,03,16,18.30
2014,08,17,03,17,18.30
2014,08,17,03,18,18.30
2014,08,17,03,19,18.30
2014,08,17,03,20,18.30
2014,08,17,03,21,18.30
2014,08,17,03,22,18.40
2014,08,17,03,23,18.40
2014,08,17,03,24,18.40
2014,08,17,03,25,18.40
2014,08,17,03,26,18.50
2014,08,17,03,27,18.50
2014,08,17,03,28,18.50
2014,08,17,03,29,18.60
2014,08,17,03,30,18.60
2014,08,17,03,31,18.60
2014,08,17,03,32,18.60
2014,08,17,03,33,18.60
2014,08,17,03,34,18.60
2014,08,17,03,35,18.60
2014,08,17,03,36,18.60
2014,08,17,03,37,18.60
2014,08,17,03,38,18.60
2014,08,17,03,39,18.70
2014,08,17,03,40,18.70
2014,08,17,03,41,18.70
2014,08,17,03,42,18.70
2014,08,17,03,43,18.70
2014,08,17,03,44,18.70
2014,08,17,03,45,18.70
2014,08,17,03,46,18.80
2014,08,17,03,47,18.80
2014,08,17,03,48,18.80
2014,08,17,03,49,18.80
2014,08,17,03,50,18.80
2014,08,17,03,51,18.80
2014,08,17,03,52,18.80
2014,08,17,03,53,18.80
2014,08,17,03,54,18.80
2014,08,17,03,55,18.80
2014,08,17,03,56,18.80
2014,08,17,03,57,18.80
2014,08,17,03,58,18.80
2014,08,17,03,59,18.80
2014,08,17,04,00,18.80
2014,08,17,04,01,18.80
2014,08,17,04,02,18.80
2014,08,17,04,03,18.80
2014,08,17,04,04,18.80
2014,08,17,04,05,18.80
2014,08,17,04,06,18.70
2014,08,17,04,07,18.70
2014,08,17,04,08,18.70
2014,08,17,04,09,18.70
2014,08,17,04,10,18.70
2014,08,17,04,11,18.70
2014,08,17,04,12,18.70
2014,08,17,04,13,18.70
2014,08,17,04,14,18.70
2014,08,17,04,15,18.70
2014,08,17,04,16,18.70
2014,08,17,04,17,18.60
2014,08,17,04,18,18.60
2014,08,17,04,19,18.60
2014,08,17,04,20,18.60
2014,08,17,04,21,18.60
2014,08,17,04,22,18.60
2014,08,17,04,23,18.60
2014,08,17,04,24,18.60
2014,08,17,04,25,18.60
2014,08,17,04,26,18.60
2014,08,17,04,27,18.60
2014,08,17,04,28,18.70
2014,08,17,04,29,18.70
2014,08,17,04,30,18.70
2014,08,17,04,31,18.70
2014,08,17,04,32,18.70
2014,08,17,04,33,18.70
2014,08,17,04,34,18.70
2014,08,17,04,35,18.70
2014,08,17,04,36,18.70
2014,08,17,04,37,18.70
2014,08,17,04,38,18.70
2014,08,17,04,39,18.70
2014,08,17,04,40,18.70
2014,08,17,04,41,18.70
2014,08,17,04,42,18.70
2014,08,17,04,43,18.70
2014,08,17,04,44,18.70
2014,08,17,04,45,18.70
2014,08,17,04,46,18.70
2014,08,17,04,47,18.70
2014,08,17,04,48,18.70
2014,08,17,04,49,18.70
2014,08,17,04,50,18.60
2014,08,17,04,51,18.60
2014,08,17,04,52,18.60
2014,08,17,04,53,18.60
2014,08,17,04,54,18.60
2014,08,17,04,55,18.60
2014,08,17,04,56,18.60
2014,08,17,04,57,18.60
2014,08,17,04,58,18.60
2014,08,17,04,59,18.60
2014,08,17,05,00,18.60
2014,08,17,05,01,18.50
2014,08,17,05,02,18.50
2014,08,17,05,03,18.50
2014,08,17,05,04,18.50
2014,08,17,05,05,18.50
2014,08,17,05,06,18.50
2014,08,17,05,07,18.50
2014,08,17,05,08,18.50
2014,08,17,05,09,18.50
2014,08,17,05,10,18.50
2014,08,17,05,11,18.40
2014,08,17,05,12,18.40
2014,08,17,05,13,18.40
2014,08,17,05,14,18.40
2014,08,17,05,15,18.40
2014,08,17,05,16,18.40
2014,08,17,05,17,18.40
2014,08,17,05,18,18.40
2014,08,17,05,19,18.30
2014,08,17,05,20,18.30
2014,08,17,05,21,18.30
2014,08,17,05,22,18.30
2014,08,17,05,23,18.30
2014,08,17,05,24,18.30
2014,08,17,05,25,18.30
2014,08,17,05,26,18.30
2014,08,17,05,27,18.30
2014,08,17,05,28,18.30
2014,08,17,05,29,18.20
2014,08,17,05,30,18.20
2014,08,17,05,31,18.20
2014,08,17,05,32,18.20
2014,08,17,05,33,18.20
2014,08,17,05,34,18.10
2014,08,17,05,35,18.10
2014,08,17,05,36,18.10
2014,08,17,05,37,18.10
2014,08,17,05,38,18.10
2014,08,17,05,39,18.10
2014,08,17,05,40,18.10
2014,08,17,05,41,18.10
2014,08,17,05,42,18.10
2014,08,17,05,43,18.10
2014,08,17,05,44,18.00
2014,08,17,05,45,18.00
2014,08,17,05,46,18.00
2014,08,17,05,47,18.00
2014,08,17,05,48,17.90
2014,08,17,05,49,17.90
2014,08,17,05,50,17.90
2014,08,17,05,51,17.90
2014,08,17,05,52,17.90
2014,08,17,05,53,17.90
2014,08,17,05,54,17.90
2014,08,17,05,55,17.90
2014,08,17,05,56,17.90
2014,08,17,05,57,17.90
2014,08,17,05,58,17.90
2014,08,17,05,59,17.90
2014,08,17,06,00,17.80
2014,08,17,06,01,17.80
2014,08,17,06,02,17.80
2014,08,17,06,03,17.70
2014,08,17,06,04,17.70
2014,08,17,06,05,17.70
2014,08,17,06,06,17.70
2014,08,17,06,07,17.60
2014,08,17,06,08,17.60
2014,08,17,06,09,17.60
2014,08,17,06,10,17.60
2014,08,17,06,11,17.50
2014,08,17,06,12,17.50
2014,08,17,06,13,17.40
2014,08,17,06,14,17.40
2014,08,17,06,15,17.30
2014,08,17,06,16,17.30
2014,08,17,06,17,17.20
2014,08,17,06,18,17.20
2014,08,17,06,19,17.20
2014,08,17,06,20,17.10
2014,08,17,06,21,17.10
2014,08,17,06,22,17.10
2014,08,17,06,23,17.00
2014,08,17,06,24,17.00
2014,08,17,06,25,16.90
2014,08,17,06,26,16.80
2014,08,17,06,27,16.80
2014,08,17,06,28,16.80
2014,08,17,06,29,16.70
2014,08,17,06,30,16.70
2014,08,17,06,31,16.70
2014,08,17,06,32,16.70
2014,08,17,06,33,16.70
2014,08,17,06,34,16.70
2014,08,17,06,35,16.60
2014,08,17,06,36,16.60
2014,08,17,06,37,16.60
2014,08,17,06,38,16.60
2014,08,17,06,39,16.60
2014,08,17,06,40,16.60
2014,08,17,06,41,16.60
2014,08,17,06,42,16.50
2014,08,17,06,43,16.50
2014,08,17,06,44,16.50
2014,08,17,06,45,16.50
2014,08,17,06,46,16.50
2014,08,17,06,47,16.60
2014,08,17,06,48,16.60
2014,08,17,06,49,16.60
2014,08,17,06,50,16.50
2014,08,17,06,51,16.50
2014,08,17,06,52,16.50
2014,08,17,06,53,16.50
2014,08,17,06,54,16.40
2014,08,17,06,55,16.40
2014,08,17,06,56,16.40
2014,08,17,06,57,16.40
2014,08,17,06,58,16.40
2014,08,17,06,59,16.40
2014,08,17,07,00,16.40
2014,08,17,07,01,16.40
2014,08,17,07,02,16.40
2014,08,17,07,03,16.40
2014,08,17,07,04,16.40
2014,08,17,07,05,16.40
2014,08,17,07,06,16.40
2014,08,17,07,07,16.40
2014,08,17,07,08,16.40
2014,08,17,07,09,16.40
2014,08,17,07,10,16.40
2014,08,17,07,11,16.40
2014,08,17,07,12,16.40
2014,08,17,07,13,16.40
2014,08,17,07,14,16.40
2014,08,17,07,15,16.40
2014,08,17,07,16,16.40
2014,08,17,07,17,16.40
2014,08,17,07,18,16.40
2014,08,17,07,19,16.40
2014,08,17,07,20,16.40
2014,08,17,07,21,16.40
2014,08,17,07,22,16.40
2014,08,17,07,23,16.40
2014,08,17,07,24,16.40
2014,08,17,07,25,16.40
2014,08,17,07,26,16.50
2014,08,17,07,27,16.50
2014,08,17,07,28,16.60
2014,08,17,07,29,16.70
2014,08,17,07,30,16.70
2014,08,17,07,31,16.80
2014,08,17,07,32,16.80
2014,08,17,07,33,16.80
2014,08,17,07,34,16.80
2014,08,17,07,35,16.90
2014,08,17,07,36,16.90
2014,08,17,07,37,16.90
2014,08,17,07,38,16.90
2014,08,17,07,39,17.00
2014,08,17,07,40,17.00
2014,08,17,07,41,17.10
2014,08,17,07,42,17.10
2014,08,17,07,43,17.10
2014,08,17,07,44,17.20
2014,08,17,07,45,17.20
2014,08,17,07,46,17.20
2014,08,17,07,47,17.30
2014,08,17,07,48,17.40
2014,08,17,07,49,17.40
2014,08,17,07,50,17.50
2014,08,17,07,51,17.50
2014,08,17,07,52,17.60
2014,08,17,07,53,17.70
2014,08,17,07,54,17.70
2014,08,17,07,55,17.80
2014,08,17,07,56,17.90
2014,08,17,07,57,18.00
2014,08,17,07,58,18.10
2014,08,17,07,59,18.10
2014,08,17,08,00,18.20
2014,08,17,08,01,18.30
2014,08,17,08,02,18.40
2014,08,17,08,03,18.50
2014,08,17,08,04,18.50
2014,08,17,08,05,18.60
2014,08,17,08,06,18.70
2014,08,17,08,07,18.70
2014,08,17,08,08,18.80
2014,08,17,08,09,18.80
2014,08,17,08,10,18.80
2014,08,17,08,11,18.90
2014,08,17,08,12,18.90
2014,08,17,08,13,18.90
2014,08,17,08,14,19.00
2014,08,17,08,15,19.00
2014,08,17,08,16,19.00
2014,08,17,08,17,19.10
2014,08,17,08,18,19.10
2014,08,17,08,19,19.10
2014,08,17,08,20,19.10
2014,08,17,08,21,19.20
2014,08,17,08,22,19.20
2014,08,17,08,23,19.30
2014,08,17,08,24,19.30
2014,08,17,08,25,19.30
2014,08,17,08,26,19.30
2014,08,17,08,27,19.30
2014,08,17,08,28,19.30
2014,08,17,08,29,19.30
2014,08,17,08,30,19.30
2014,08,17,08,31,19.20
2014,08,17,08,32,19.20
2014,08,17,08,33,19.20
2014,08,17,08,34,19.20
2014,08,17,08,35,19.20
2014,08,17,08,36,19.20
2014,08,17,08,37,19.20
2014,08,17,08,38,19.30
2014,08,17,08,39,19.30
2014,08,17,08,40,19.30
2014,08,17,08,41,19.40
2014,08,17,08,42,19.40
2014,08,17,08,43,19.40
2014,08,17,08,44,19.40
2014,08,17,08,45,19.40
2014,08,17,08,46,19.30
2014,08,17,08,47,19.30
2014,08,17,08,48,19.20
2014,08,17,08,49,19.20
2014,08,17,08,50,19.20
2014,08,17,08,51,19.20
2014,08,17,08,52,19.20
2014,08,17,08,53,19.20
2014,08,17,08,54,19.20
2014,08,17,08,55,19.20
2014,08,17,08,56,19.30
2014,08,17,08,57,19.30
2014,08,17,08,58,19.30
2014,08,17,08,59,19.30
2014,08,17,09,00,19.30
2014,08,17,09,01,19.30
2014,08,17,09,02,19.30
2014,08,17,09,03,19.30
2014,08,17,09,04,19.20
2014,08,17,09,05,19.20
2014,08,17,09,06,19.20
2014,08,17,09,07,19.10
2014,08,17,09,08,19.20
2014,08,17,09,09,19.20
2014,08,17,09,10,19.20
2014,08,17,09,11,19.20
2014,08,17,09,12,19.20
2014,08,17,09,13,19.20
2014,08,17,09,14,19.30
2014,08,17,09,15,19.20
2014,08,17,09,16,19.20
2014,08,17,09,17,19.20
2014,08,17,09,18,19.20
2014,08,17,09,19,19.20
2014,08,17,09,20,19.20
2014,08,17,09,21,19.20
2014,08,17,09,22,19.20
2014,08,17,09,23,19.20
2014,08,17,09,24,19.20
2014,08,17,09,25,19.20
2014,08,17,09,26,19.20
2014,08,17,09,27,19.30
2014,08,17,09,28,19.30
2014,08,17,09,29,19.30
2014,08,17,09,30,19.30
2014,08,17,09,31,19.40
2014,08,17,09,32,19.30
2014,08,17,09,33,19.30
2014,08,17,09,34,19.30
2014,08,17,09,35,19.20
2014,08,17,09,36,19.20
2014,08,17,09,37,19.20
2014,08,17,09,38,19.20
2014,08,17,09,39,19.20
2014,08,17,09,40,19.20
2014,08,17,09,41,19.20
2014,08,17,09,42,19.30
2014,08,17,09,43,19.30
2014,08,17,09,44,19.30
2014,08,17,09,45,19.40
2014,08,17,09,46,19.40
2014,08,17,09,47,19.50
2014,08,17,09,48,19.50
2014,08,17,09,49,19.50
2014,08,17,09,50,19.50
2014,08,17,09,51,19.60
2014,08,17,09,52,19.60
2014,08,17,09,53,19.50
2014,08,17,09,54,19.50
2014,08,17,09,55,19.50
2014,08,17,09,56,19.40
2014,08,17,09,57,19.40
2014,08,17,09,58,19.30
2014,08,17,09,59,19.40
2014,08,17,10,00,19.30
2014,08,17,10,01,19.20
2014,08,17,10,02,19.20
2014,08,17,10,03,19.10
2014,08,17,10,04,19.10
2014,08,17,10,05,19.10
2014,08,17,10,06,19.10
2014,08,17,10,07,19.10
2014,08,17,10,08,19.20
2014,08,17,10,09,19.20
2014,08,17,10,10,19.20
2014,08,17,10,11,19.20
2014,08,17,10,12,19.20
2014,08,17,10,13,19.20
2014,08,17,10,14,19.20
2014,08,17,10,15,19.20
2014,08,17,10,16,19.30
2014,08,17,10,17,19.30
2014,08,17,10,18,19.40
2014,08,17,10,19,19.40
2014,08,17,10,20,19.50
2014,08,17,10,21,19.40
2014,08,17,10,22,19.40
2014,08,17,10,23,19.40
2014,08,17,10,24,19.40
2014,08,17,10,25,19.50
2014,08,17,10,26,19.60
2014,08,17,10,27,19.60
2014,08,17,10,28,19.60
2014,08,17,10,29,19.50
2014,08,17,10,30,19.50
2014,08,17,10,31,19.40
2014,08,17,10,32,19.30
2014,08,17,10,33,19.30
2014,08,17,10,34,19.30
2014,08,17,10,35,19.30
2014,08,17,10,36,19.30
2014,08,17,10,37,19.30
2014,08,17,10,38,19.40
2014,08,17,10,39,19.40
2014,08,17,10,40,19.50
2014,08,17,10,41,19.50
2014,08,17,10,42,19.50
2014,08,17,10,43,19.40
2014,08,17,10,44,19.40
2014,08,17,10,45,19.30
2014,08,17,10,46,19.30
2014,08,17,10,47,19.30
2014,08,17,10,48,19.30
2014,08,17,10,49,19.40
2014,08,17,10,50,19.40
2014,08,17,10,51,19.50
2014,08,17,10,52,19.50
2014,08,17,10,53,19.50
2014,08,17,10,54,19.50
2014,08,17,10,55,19.50
2014,08,17,10,56,19.50
2014,08,17,10,57,19.60
2014,08,17,10,58,19.70
2014,08,17,10,59,19.80
2014,08,17,11,00,19.80
2014,08,17,11,01,19.70
2014,08,17,11,02,19.70
2014,08,17,11,03,19.60
2014,08,17,11,04,19.50
2014,08,17,11,05,19.50
2014,08,17,11,06,19.40
2014,08,17,11,07,19.40
2014,08,17,11,08,19.40
2014,08,17,11,09,19.40
2014,08,17,11,10,19.40
2014,08,17,11,11,19.50
2014,08,17,11,12,19.50
2014,08,17,11,13,19.50
2014,08,17,11,14,19.60
2014,08,17,11,15,19.60
2014,08,17,11,16,19.70
2014,08,17,11,17,19.70
2014,08,17,11,18,19.70
2014,08,17,11,19,19.80
2014,08,17,11,20,19.80
2014,08,17,11,21,19.90
2014,08,17,11,22,19.90
2014,08,17,11,23,19.90
2014,08,17,11,24,19.90
2014,08,17,11,25,20.00
2014,08,17,11,26,19.90
2014,08,17,11,27,19.90
2014,08,17,11,28,20.00
2014,08,17,11,29,20.00
2014,08,17,11,30,20.10
2014,08,17,11,31,20.10
2014,08,17,11,32,20.10
2014,08,17,11,33,20.10
2014,08,17,11,34,20.10
2014,08,17,11,35,20.00
2014,08,17,11,36,19.90
2014,08,17,11,37,19.80
2014,08,17,11,38,19.80
2014,08,17,11,39,19.80
2014,08,17,11,40,19.80
2014,08,17,11,41,19.80
2014,08,17,11,42,19.80
2014,08,17,11,43,19.90
2014,08,17,11,44,19.90
2014,08,17,11,45,19.90
2014,08,17,11,46,20.00
2014,08,17,11,47,20.00
2014,08,17,11,48,19.90
2014,08,17,11,49,19.90
2014,08,17,11,50,19.80
2014,08,17,11,51,19.80
2014,08,17,11,52,19.80
2014,08,17,11,53,19.80
2014,08,17,11,54,19.80
2014,08,17,11,55,19.90
2014,08,17,11,56,19.90
2014,08,17,11,57,19.90
2014,08,17,11,58,20.00
2014,08,17,11,59,20.00
2014,08,17,12,00,20.00
2014,08,17,12,01,20.00
2014,08,17,12,02,20.10
2014,08,17,12,03,20.10
2014,08,17,12,04,20.20
2014,08,17,12,05,20.20
2014,08,17,12,06,20.20
2014,08,17,12,07,20.20
2014,08,17,12,08,20.20
2014,08,17,12,09,20.20
2014,08,17,12,10,20.20
2014,08,17,12,11,20.10
2014,08,17,12,12,20.10
2014,08,17,12,13,20.20
2014,08,17,12,14,20.30
2014,08,17,12,15,20.30
2014,08,17,12,16,20.40
2014,08,17,12,17,20.40
2014,08,17,12,18,20.40
2014,08,17,12,19,20.40
2014,08,17,12,20,20.40
2014,08,17,12,21,20.40
2014,08,17,12,22,20.50
2014,08,17,12,23,20.50
2014,08,17,12,24,20.50
2014,08,17,12,25,20.50
2014,08,17,12,26,20.50
2014,08,17,12,27,20.50
2014,08,17,12,28,20.60
2014,08,17,12,29,20.60
2014,08,17,12,30,20.60
2014,08,17,12,31,20.60
2014,08,17,12,32,20.60
2014,08,17,12,33,20.50
2014,08,17,12,34,20.50
2014,08,17,12,35,20.50
2014,08,17,12,36,20.40
2014,08,17,12,37,20.30
2014,08,17,12,38,20.30
2014,08,17,12,39,20.30
2014,08,17,12,40,20.40
2014,08,17,12,41,20.40
2014,08,17,12,42,20.50
2014,08,17,12,43,20.60
2014,08,17,12,44,20.70
2014,08,17,12,45,20.80
2014,08,17,12,46,20.80
2014,08,17,12,47,20.80
2014,08,17,12,48,20.90
2014,08,17,12,49,20.90
2014,08,17,12,50,20.80
2014,08,17,12,51,20.70
2014,08,17,12,52,20.70
2014,08,17,12,53,20.60
2014,08,17,12,54,20.50
2014,08,17,12,55,20.50
2014,08,17,12,56,20.60
2014,08,17,12,57,20.60
2014,08,17,12,58,20.70
2014,08,17,12,59,20.70
2014,08,17,13,00,20.70
2014,08,17,13,01,20.70
2014,08,17,13,02,20.80
2014,08,17,13,03,20.80
2014,08,17,13,04,20.80
2014,08,17,13,05,20.80
2014,08,17,13,06,20.90
2014,08,17,13,07,20.90
2014,08,17,13,08,20.90
2014,08,17,13,09,21.00
2014,08,17,13,10,21.10
2014,08,17,13,11,21.20
2014,08,17,13,12,21.20
2014,08,17,13,13,21.20
2014,08,17,13,14,21.30
2014,08,17,13,15,21.20
2014,08,17,13,16,21.20
2014,08,17,13,17,21.10
2014,08,17,13,18,21.10
2014,08,17,13,19,21.10
2014,08,17,13,20,21.10
2014,08,17,13,21,21.10
2014,08,17,13,22,21.10
2014,08,17,13,23,21.10
2014,08,17,13,24,21.10
2014,08,17,13,25,21.20
2014,08,17,13,26,21.20
2014,08,17,13,27,21.30
2014,08,17,13,28,21.40
2014,08,17,13,29,21.40
2014,08,17,13,30,21.40
2014,08,17,13,31,21.40
2014,08,17,13,32,21.40
2014,08,17,13,33,21.40
2014,08,17,13,34,21.40
2014,08,17,13,35,21.40
2014,08,17,13,36,21.40
2014,08,17,13,37,21.50
2014,08,17,13,38,21.50
2014,08,17,13,39,21.50
2014,08,17,13,40,21.60
2014,08,17,13,41,21.60
2014,08,17,13,42,21.70
2014,08,17,13,43,21.70
2014,08,17,13,44,21.70
2014,08,17,13,45,21.60
2014,08,17,13,46,21.60
2014,08,17,13,47,21.60
2014,08,17,13,48,21.60
2014,08,17,13,49,21.50
2014,08,17,13,50,21.40
2014,08,17,13,51,21.40
2014,08,17,13,52,21.40
2014,08,17,13,53,21.40
2014,08,17,13,54,21.40
2014,08,17,13,55,21.40
2014,08,17,13,56,21.40
2014,08,17,13,57,21.40
2014,08,17,13,58,21.40
2014,08,17,13,59,21.50
2014,08,17,14,00,21.50
2014,08,17,14,01,21.50
2014,08,17,14,02,21.50
2014,08,17,14,03,21.60
2014,08,17,14,04,21.60
2014,08,17,14,05,21.70
2014,08,17,14,06,21.80
2014,08,17,14,07,21.90
2014,08,17,14,08,21.90
2014,08,17,14,09,22.00
2014,08,17,14,10,22.10
2014,08,17,14,11,22.10
2014,08,17,14,12,22.20
2014,08,17,14,13,22.20
2014,08,17,14,14,22.20
2014,08,17,14,15,22.10
2014,08,17,14,16,22.20
2014,08,17,14,17,22.30
2014,08,17,14,18,22.30
2014,08,17,14,19,22.30
2014,08,17,14,20,22.40
2014,08,17,14,21,22.50
2014,08,17,14,22,22.50
2014,08,17,14,23,22.60
2014,08,17,14,24,22.60
2014,08,17,14,25,22.60
2014,08,17,14,26,22.60
2014,08,17,14,27,22.60
2014,08,17,14,28,22.60
2014,08,17,14,29,22.50
2014,08,17,14,30,22.50
2014,08,17,14,31,22.40
2014,08,17,14,32,22.30
2014,08,17,14,33,22.30
2014,08,17,14,34,22.20
2014,08,17,14,35,22.20
2014,08,17,14,36,22.20
2014,08,17,14,37,22.30
2014,08,17,14,38,22.30
2014,08,17,14,39,22.40
2014,08,17,14,40,22.40
2014,08,17,14,41,22.40
2014,08,17,14,42,22.50
2014,08,17,14,43,22.50
2014,08,17,14,44,22.60
2014,08,17,14,45,22.60
2014,08,17,14,46,22.50
2014,08,17,14,47,22.40
2014,08,17,14,48,22.40
2014,08,17,14,49,22.30
2014,08,17,14,50,22.30
2014,08,17,14,51,22.40
2014,08,17,14,52,22.50
2014,08,17,14,53,22.60
2014,08,17,14,54,22.60
2014,08,17,14,55,22.60
2014,08,17,14,56,22.70
2014,08,17,14,57,22.70
2014,08,17,14,58,22.80
2014,08,17,14,59,22.80
2014,08,17,15,00,22.80
2014,08,17,15,01,22.80
2014,08,17,15,02,22.70
2014,08,17,15,03,22.70
2014,08,17,15,04,22.70
2014,08,17,15,05,22.70
2014,08,17,15,06,22.80
2014,08,17,15,07,22.80
2014,08,17,15,08,22.80
2014,08,17,15,09,22.80
2014,08,17,15,10,22.90
2014,08,17,15,11,23.00
2014,08,17,15,12,23.10
2014,08,17,15,13,23.10
2014,08,17,15,14,23.10
2014,08,17,15,15,23.00
2014,08,17,15,16,23.00
2014,08,17,15,17,22.90
2014,08,17,15,18,22.90
2014,08,17,15,19,22.90
2014,08,17,15,20,22.80
2014,08,17,15,21,22.80
2014,08,17,15,22,22.80
2014,08,17,15,23,22.80
2014,08,17,15,24,22.80
2014,08,17,15,25,22.80
2014,08,17,15,26,22.90
2014,08,17,15,27,22.90
2014,08,17,15,28,22.90
2014,08,17,15,29,22.90
2014,08,17,15,30,22.90
2014,08,17,15,31,22.90
2014,08,17,15,32,22.90
2014,08,17,15,33,23.00
2014,08,17,15,34,23.10
2014,08,17,15,35,23.00
2014,08,17,15,36,23.00
2014,08,17,15,37,22.90
2014,08,17,15,38,22.90
2014,08,17,15,39,22.90
2014,08,17,15,40,23.00
2014,08,17,15,41,23.00
2014,08,17,15,42,23.10
2014,08,17,15,43,23.10
2014,08,17,15,44,23.10
2014,08,17,15,45,23.20
2014,08,17,15,46,23.20
2014,08,17,15,47,23.20
2014,08,17,15,48,23.30
2014,08,17,15,49,23.30
2014,08,17,15,50,23.30
2014,08,17,15,51,23.30
2014,08,17,15,52,23.30
2014,08,17,15,53,23.30
2014,08,17,15,54,23.30
2014,08,17,15,55,23.30
2014,08,17,15,56,23.30
2014,08,17,15,57,23.30
2014,08,17,15,58,23.30
2014,08,17,15,59,23.30
2014,08,17,16,00,23.30
2014,08,17,16,01,23.30
2014,08,17,16,02,23.30
2014,08,17,16,03,23.30
2014,08,17,16,04,23.30
2014,08,17,16,05,23.30
2014,08,17,16,06,23.30
2014,08,17,16,07,23.30
2014,08,17,16,08,23.30
2014,08,17,16,09,23.30
2014,08,17,16,10,23.20
2014,08,17,16,11,23.20
2014,08,17,16,12,23.20
2014,08,17,16,13,23.20
2014,08,17,16,14,23.20
2014,08,17,16,15,23.20
2014,08,17,16,16,23.20
2014,08,17,16,17,23.10
2014,08,17,16,18,23.20
2014,08,17,16,19,23.20
2014,08,17,16,20,23.20
2014,08,17,16,21,23.30
2014,08,17,16,22,23.30
2014,08,17,16,23,23.30
2014,08,17,16,24,23.30
2014,08,17,16,25,23.30
2014,08,17,16,26,23.40
2014,08,17,16,27,23.40
2014,08,17,16,28,23.40
2014,08,17,16,29,23.40
2014,08,17,16,30,23.30
2014,08,17,16,31,23.30
2014,08,17,16,32,23.20
2014,08,17,16,33,23.10
2014,08,17,16,34,23.10
2014,08,17,16,35,23.00
2014,08,17,16,36,23.00
2014,08,17,16,37,22.90
2014,08,17,16,38,23.00
2014,08,17,16,39,23.00
2014,08,17,16,40,23.00
2014,08,17,16,41,23.00
2014,08,17,16,42,23.10
2014,08,17,16,43,23.20
2014,08,17,16,44,23.20
2014,08,17,16,45,23.20
2014,08,17,16,46,23.20
2014,08,17,16,47,23.20
2014,08,17,16,48,23.20
2014,08,17,16,49,23.20
2014,08,17,16,50,23.30
2014,08,17,16,51,23.30
2014,08,17,16,52,23.30
2014,08,17,16,53,23.30
2014,08,17,16,54,23.30
2014,08,17,16,55,23.30
2014,08,17,16,56,23.30
2014,08,17,16,57,23.30
2014,08,17,16,58,23.30
2014,08,17,16,59,23.40
2014,08,17,17,00,23.40
2014,08,17,17,01,23.40
2014,08,17,17,02,23.40
2014,08,17,17,03,23.40
2014,08,17,17,04,23.40
2014,08,17,17,05,23.40
2014,08,17,17,06,23.40
2014,08,17,17,07,23.30
2014,08,17,17,08,23.30
2014,08,17,17,09,23.30
2014,08,17,17,10,23.30
2014,08,17,17,11,23.40
2014,08,17,17,12,23.40
2014,08,17,17,13,23.30
2014,08,17,17,14,23.40
2014,08,17,17,15,23.40
2014,08,17,17,16,23.40
2014,08,17,17,17,23.40
2014,08,17,17,18,23.50
2014,08,17,17,19,23.50